FEDSAT

Satellite information

Favourite Embed

Satellite Type and Status

PAYLOADIN ORBIT

Key statistics

Satellite FEDSAT at a glance.

Uptime

8345

Days in orbit

Revolutions

≈ 14.3

Per day

Orbit

SSO

Sun Synchronous Orbit

Inclination

98.8

Latest

Satellite identification and parameters

Extended collection of information and parameters for FEDSAT.

Object identification

Identified? True

Debris? False

Object name: FEDSAT

International designator: 2002-056B

Object number (NORAD): 27598

Object ID (CCSDS): 27598

Country: AUSTRALIA (AUS)

Current information (Y/N): Y

RCS size: MEDIUM

Orbital parameters

Period: 100.726 minutes

Inclination: 98.8265 deg

SMA: 7171.127 km

Apoapsis: 799.035 km

Periapsis: 786.95 km

RAAN: 255.6558 deg

Eccentricy: 0.00084264

Argument of periapsis: 330.459 deg

Mean anomaly: 29.6114 deg

Mean motion: 14.29623288 rev/day

Mean motion (dot): 0.00000273 rev/day2

B* drag term: 0.00012437951 1/REarth

Two-line elements (TLE)

Creation date: Oct. 18, 2025, 2:17 a.m.

Reference frame: TEME

Reference center: EARTH

Epoch: Oct. 17, 2025, 10:51 p.m. UTC

TLE line 0: 0 FEDSAT

TLE line 1: 1 27598U 02056B 25290.95218224 .00000273 00000-0 12438-3 0 9998

TLE line 2: 2 27598 98.8265 255.6558 0008426 330.4590 29.6114 14.29623288191145

Live tracking on map

Real-time ground track for satellite FEDSAT.

In-orbit conjunctions

A list of the most updated potential collisions computed for object FEDSAT.

Target Orbit TCA Probability of collision Miss distance Type
NOAA 16 DEB SSO 2025-10-18 10:07:31 0.0001126945 254.0 (m) DEBRIS
FENGYUN 1C DEB SSO 2025-05-30 02:48:44 0.0004511201 182.0 (m) DEBRIS
COSMOS 2251 DEB LEO 2025-04-15 20:55:09 0.0005594599 159.0 (m) DEBRIS
COSMOS 2251 DEB LEO 2025-04-04 06:09:57 0.0001127793 801.0 (m) DEBRIS
COSMOS 1867 COOLANT LEO 2025-02-01 11:31:37 0.0003421807 126.0 (m) DEBRIS

Associated space launch

Midori II has been engaged in various observation missions to understand the realities and causes of global environmental changes, such as abnormal weather conditions and the expansion of the ozone hole.

FEDSAT was lifted into orbit during the mission ‘H-IIA 202 | Midori-2’, on board a H-IIA space rocket.

The launch took place on Dec. 14, 2002, 1:31 a.m. from Yoshinobu Launch Complex LP-1.

For more information about the launch, click the button.

Launch to space H-IIA 202 | Midori-2
H-IIA 202 | Midori-2

Agency: N/A

Status: Launch Successful

Launch date: Dec. 14, 2002, 1:31 a.m. UTC

Rocket: H-IIA

Launch pad: Yoshinobu Launch Complex LP-1

Location: Tanegashima Space Center, Japan

...

Latest news about this satellite

There are no fresh news available about this satellite. Check back as we update our databases every day.


Newsletter sign-up

Weekly statistics, charts and insights to help you stay on top of the space industry.